M1DJR Weather Reports


Display with metric or nautical units.
time (UTC)temp
F
wind
direction
speed
MPH
gust
MPH
rain 1hr
in
rain 24hr
in
rain mn
in
humidity
%
barometer
mb
20260510222247 45 0.0 0.0 0.00 0.00 0.00 56 1013.7
20260510221205 46 0.0 0.0 0.00 0.00 0.00 55 1014.0
20260510220203 46 0.0 0.0 0.00 0.00 0.00 54 1014.1
20260510215201 46 0.0 0.0 0.00 0.00 0.00 53 1014.1
20260510214159 47 0.0 0.0 0.00 0.00 0.00 52 1014.1
20260510213156 47 0.0 0.0 0.00 0.00 0.00 51 1014.1
20260510212155 47 0.0 0.0 0.00 0.00 0.00 49 1014.1
20260510211153 48 0.0 0.0 0.00 0.00 0.00 49 1014.2
20260510210151 48 0.0 0.0 0.00 0.00 0.00 48 1014.1
20260510205148 48 0.0 0.0 0.00 0.00 0.00 47 1014.2
20260510204147 49 0.0 0.0 0.00 0.00 0.00 47 1014.3
20260510203145 49 0.0 0.0 0.00 0.00 0.00 46 1014.3
20260510202143 49 0.0 0.0 0.00 0.00 0.00 45 1014.3
20260510201140 50 0.0 0.0 0.00 0.00 0.00 44 1014.3
20260510200139 50 0.0 0.0 0.00 0.00 0.00 44 1014.5
20260510195137 51 0.0 0.0 0.00 0.00 0.00 43 1014.6
20260510194215 51 0.0 0.0 0.00 0.00 0.00 42 1014.6
20260510193133 52 0.0 0.0 0.00 0.00 0.00 41 1014.6
20260510192131 53 0.0 0.0 0.00 0.00 0.00 40 1014.8
20260510191129 53 0.0 0.0 0.00 0.00 0.00 40 1014.8
20260510190126 54 0.0 0.0 0.00 0.00 0.00 39 1014.9
20260510185125 54 0.0 0.0 0.00 0.00 0.00 39 1015.0
20260510184123 55 0.0 0.0 0.00 0.00 0.00 37 1015.1
20260510183121 55 0.0 0.0 0.00 0.00 0.00 37 1015.1
20260510182119 55 0.0 0.0 0.00 0.00 0.00 37 1015.2
20260510181117 55 0.0 0.0 0.00 0.00 0.00 37 1015.2
20260510180114 56 0.0 0.0 0.00 0.00 0.00 36 1015.3
20260510175113 56 0.0 0.0 0.00 0.00 0.00 36 1015.3
20260510174111 57 0.0 0.0 0.00 0.00 0.00 36 1015.4
20260510173110 57 0.0 0.0 0.00 0.00 0.00 35 1015.4
20260510172106 57 0.0 0.0 0.00 0.00 0.00 34 1015.4
20260510171105 58 0.0 0.0 0.00 0.00 0.00 34 1015.6
20260510165101 58 0.0 0.0 0.00 0.00 0.00 34 1015.7
20260510164139 58 0.0 0.0 0.00 0.00 0.00 34 1016.0
20260510163057 58 0.0 0.0 0.00 0.00 0.00 35 1016.1
20260510162055 58 0.0 0.0 0.00 0.00 0.00 35 1016.2
20260510161053 58 0.0 0.0 0.00 0.00 0.00 34 1016.5
20260510160051 58 0.0 0.0 0.00 0.00 0.00 33 1016.6
20260510155130 59 0.0 0.0 0.00 0.00 0.00 33 1016.6
20260510154046 59 0.0 0.0 0.00 0.00 0.00 33 1016.6
20260510153045 60 0.0 0.0 0.00 0.00 0.00 32 1016.7
20260510152122 61 0.0 0.0 0.00 0.00 0.00 32 1016.7
20260510151042 61 0.0 0.0 0.00 0.00 0.00 32 1016.8
20260510150119 61 0.0 0.0 0.00 0.00 0.00 32 1016.9
20260510145117 61 0.0 0.0 0.00 0.00 0.00 32 1017.0
20260510144036 61 0.0 0.0 0.00 0.00 0.00 32 1017.1
20260510143033 61 0.0 0.0 0.00 0.00 0.00 33 1017.2
20260510142031 62 0.0 0.0 0.00 0.00 0.00 31 1017.3
20260510141029 62 0.0 0.0 0.00 0.00 0.00 32 1017.5
20260510140026 62 0.0 0.0 0.00 0.00 0.00 33 1017.5
20260510135025 63 0.0 0.0 0.00 0.00 0.00 32 1017.6
20260510134022 63 0.0 0.0 0.00 0.00 0.00 32 1017.6
20260510133021 63 0.0 0.0 0.00 0.00 0.00 34 1017.6
20260510132018 62 0.0 0.0 0.00 0.00 0.00 36 1017.8
20260510131017 62 0.0 0.0 0.00 0.00 0.00 35 1017.9
20260510130015 62 0.0 0.0 0.00 0.00 0.00 35 1017.9
20260510125014 62 0.0 0.0 0.00 0.00 0.00 35 1018.0
20260510124051 60 0.0 0.0 0.00 0.00 0.00 37 1018.1
20260510123010 61 0.0 0.0 0.00 0.00 0.00 36 1018.3
20260510122007 61 0.0 0.0 0.00 0.00 0.00 37 1018.4
20260510121005 60 0.0 0.0 0.00 0.00 0.00 39 1018.3
20260510120003 59 0.0 0.0 0.00 0.00 0.00 40 1018.5
20260510115001 58 0.0 0.0 0.00 0.00 0.00 42 1018.6
20260510113958 57 0.0 0.0 0.00 0.00 0.00 43 1018.8
20260510112957 56 0.0 0.0 0.00 0.00 0.00 46 1019.0
20260510111954 55 0.0 0.0 0.00 0.00 0.00 48 1019.1
20260510110953 53 0.0 0.0 0.00 0.00 0.00 51 1019.2
20260510110032 53 0.0 0.0 0.00 0.00 0.00 51 1019.4
20260510104948 53 0.0 0.0 0.00 0.00 0.00 51 1019.5
20260510103947 53 0.0 0.0 0.00 0.00 0.00 53 1019.5
20260510102944 53 0.0 0.0 0.00 0.00 0.00 54 1019.5
20260510101943 52 0.0 0.0 0.00 0.00 0.00 54 1019.6
20260510100941 52 0.0 0.0 0.00 0.00 0.00 56 1019.7
20260510095939 52 0.0 0.0 0.00 0.00 0.00 56 1019.9
20260510095017 52 0.0 0.0 0.00 0.00 0.00 57 1020.0
20260510093935 51 0.0 0.0 0.00 0.00 0.00 59 1020.0
20260510093014 51 0.0 0.0 0.00 0.00 0.00 59 1020.2
20260510091931 50 0.0 0.0 0.00 0.00 0.00 60 1020.2
20260510090930 50 0.0 0.0 0.00 0.00 0.00 61 1020.2
20260510085927 49 0.0 0.0 0.00 0.00 0.00 62 1020.3
20260510084926 49 0.0 0.0 0.00 0.00 0.00 63 1020.4
20260510083922 49 0.0 0.0 0.00 0.00 0.00 63 1020.2
20260510082920 49 0.0 0.0 0.00 0.00 0.00 64 1020.3
20260510081959 48 0.0 0.0 0.00 0.00 0.00 65 1020.3
20260510080917 48 0.0 0.0 0.00 0.00 0.00 66 1020.3
20260510075915 47 0.0 0.0 0.00 0.00 0.00 68 1020.2
20260510074913 47 0.0 0.0 0.00 0.00 0.00 69 1020.3
20260510073911 47 0.0 0.0 0.00 0.00 0.00 69 1020.3
20260510072908 47 0.0 0.0 0.00 0.00 0.00 70 1020.2
20260510071907 46 0.0 0.0 0.00 0.00 0.00 71 1020.2
20260510070905 46 0.0 0.0 0.00 0.00 0.00 71 1020.3
20260510065942 46 0.0 0.0 0.00 0.00 0.00 72 1020.3
20260510064901 46 0.0 0.0 0.00 0.00 0.00 72 1020.3
20260510063858 46 0.0 0.0 0.00 0.00 0.00 71 1020.2
20260510062857 46 0.0 0.0 0.00 0.00 0.00 72 1020.1
20260510061854 46 0.0 0.0 0.00 0.00 0.00 72 1019.9
20260510060853 46 0.0 0.0 0.00 0.00 0.00 72 1019.9
20260510055850 46 0.0 0.0 0.00 0.00 0.00 72 1019.8
20260510054929 46 0.0 0.0 0.00 0.00 0.00 72 1019.7
20260510053846 46 0.0 0.0 0.00 0.00 0.00 72 1019.8
20260510052845 46 0.0 0.0 0.00 0.00 0.00 72 1019.8
20260510051923 46 0.0 0.0 0.00 0.00 0.00 72 1019.9
20260510050841 46 0.0 0.0 0.00 0.00 0.00 73 1019.9
20260510045918 46 0.0 0.0 0.00 0.00 0.00 73 1019.7
20260510044837 46 0.0 0.0 0.00 0.00 0.00 74 1019.7
20260510043915 46 0.0 0.0 0.00 0.00 0.00 74 1019.6
20260510042833 46 0.0 0.0 0.00 0.00 0.00 74 1019.5
20260510041831 46 0.0 0.0 0.00 0.00 0.00 75 1019.6
20260510040828 46 0.0 0.0 0.00 0.00 0.00 75 1019.9
20260510035907 46 0.0 0.0 0.00 0.00 0.00 75 1020.0
20260510034824 46 0.0 0.0 0.00 0.00 0.00 75 1020.1
20260510033823 46 0.0 0.0 0.00 0.00 0.00 76 1020.2
20260510032901 46 0.0 0.0 0.00 0.00 0.00 76 1020.1
20260510031820 46 0.0 0.0 0.00 0.00 0.00 76 1020.1
20260510030856 47 0.0 0.0 0.00 0.00 0.00 76 1020.2
20260510025815 47 0.0 0.0 0.00 0.00 0.00 76 1020.2
20260510024812 47 0.0 0.0 0.00 0.00 0.00 77 1020.4
20260510023851 47 0.0 0.0 0.00 0.00 0.00 77 1020.5
20260510022808 47 0.0 0.0 0.00 0.00 0.00 77 1020.5
20260510021807 47 0.0 0.0 0.00 0.00 0.00 77 1020.4
20260510020805 47 0.0 0.0 0.00 0.00 0.00 77 1020.2
20260510015803 47 0.0 0.0 0.00 0.00 0.00 77 1020.1
20260510014801 47 0.0 0.0 0.00 0.00 0.00 78 1019.9
20260510013759 47 0.0 0.0 0.00 0.00 0.00 78 1020.1
20260510012757 47 0.0 0.0 0.00 0.00 0.00 78 1020.1
20260510011754 47 0.0 0.0 0.00 0.00 0.00 78 1020.3
20260510010753 47 0.0 0.0 0.00 0.00 0.00 77 1020.3
20260510005751 47 0.0 0.0 0.00 0.00 0.00 78 1020.4
20260510004749 47 0.0 0.0 0.00 0.00 0.00 78 1020.3
20260510003747 47 0.0 0.0 0.00 0.00 0.00 78 1020.5
20260510002744 47 0.0 0.0 0.00 0.00 0.00 78 1020.5
20260510001743 47 0.0 0.0 0.00 0.00 0.00 78 1020.4
20260510000740 48 0.0 0.0 0.00 0.00 0.00 78 1020.4
20260509235819 48 0.0 0.0 0.00 0.00 0.00 78 1020.4
20260509234737 48 0.0 0.0 0.00 0.00 0.00 78 1020.5
20260509233735 48 0.0 0.0 0.00 0.00 0.00 78 1020.4
20260509232733 48 0.0 0.0 0.00 0.00 0.00 78 1020.4
20260509231731 49 0.0 0.0 0.00 0.00 0.00 78 1020.4
20260509230728 49 0.0 0.0 0.00 0.00 0.00 78 1020.2
20260509225728 49 0.0 0.0 0.00 0.00 0.00 78 1020.1
20260509224727 49 0.0 0.0 0.00 0.00 0.00 78 1020.0
20260509223723 49 0.0 0.0 0.00 0.00 0.00 78 1020.0
20260509222721 49 0.0 0.0 0.00 0.00 0.00 78 1020.0